sat.trackr.live / text

‹ back to catalog

EWS-G2 (GOES 15)

NORAD 36411 · 2010-008A

PAYLOAD ACTIVE UNKNOWN

§ Identity

Operator
Country
US
Launch date
2010-03-04
Launch site
AFETR
Launch vehicle
Mass (kg)
RCS (m²)
6.31

Purposes: comms, earth_obs

External: N2YO · Heavens-Above · Gunter

§ Orbital elements

Epoch: 2026-09-10T00:37:12.404928Z

Period
1,436.11 min
Inclination
1.5067°
Eccentricity
0.0005150
Mean motion
1.00271079 rev/d
Perigee alt
35,765.1 km
Apogee alt
35,808.5 km
Semi-major
42,164.9 km
B*
0.0000e+0
RAAN
81.8636°
Arg perigee
80.2883°
Mean anomaly
259.5345°
Rev number
6,048

§ Raw data

EWS-G2 (GOES 15)1 36411U 10008A   26253.02583802  .00000002  00000+0  00000+0 0  99902 36411   1.5067  81.8636 0005150  80.2883 259.5345  1.00271079 60486

JSON: /api/v1/satellites/36411 · /tle

For live sub-satellite position, see the globe view (requires WebGL).

§ Visibility from observer

Set your observer location to see the next 7 days of passes ≥ 10°. The values pass through the URL so the page stays shareable.

No JS? Fill the form by hand. The geolocation button needs JavaScript.